Wind_Speed
22 22 22 23 16 17 26 24 25 25 27 27 26 22 15 15 15 12 7 5 15 19 17 16 14 13 16 14 13 17 17 16 16 16 15 14 13 15 14 14 16 14 14 15 13 12 13 13 14
22 22 24 25 24 32 27 29 27 23 17 16 14 17 23 22 17 15 14 12 11 18 19 18 16 16 18 16 15 18 18 17 17 17 16 14 15 17 17 15 17 15 14 15 13 12 14 13 15
24 23 24 22 34 43 31 33 30 25 22 26 26 22 19 22 24 23 19 18 15 16 17 16 17 19 20 19 17 19 20 19 19 19 17 15 17 18 17 17 21 18 17 15 12 14 16 16 16
28 28 28 32 42 33 24 22 19 16 17 24 29 28 24 20 20 18 18 24 23 21 16 17 18 21 23 22 20 21 21 20 20 20 18 17 18 19 18 19 23 21 19 16 13 17 16 17 18
27 31 34 42 46 45 42 37 33 25 21 20 23 29 25 22 20 21 22 24 26 25 23 20 20 22 24 23 23 22 23 22 22 21 19 19 20 20 19 19 26 24 22 18 14 18 18 18 18
25 30 35 42 44 41 39 40 39 40 36 33 32 31 30 36 31 26 28 28 23 24 28 29 23 24 28 27 26 26 25 23 23 22 20 21 22 22 19 20 24 25 23 18 17 20 18 17 17
26 29 40 43 42 35 31 28 37 42 40 42 44 37 35 33 34 27 31 30 27 24 30 30 30 24 28 29 30 29 27 26 25 23 21 21 25 22 20 22 21 24 24 21 19 19 19 17 17
31 32 40 38 35 36 40 37 39 34 35 36 44 43 39 35 32 33 33 33 31 26 25 30 30 29 30 30 32 32 30 28 27 26 24 23 24 24 23 24 23 21 22 23 21 20 19 18 16
30 32 36 33 29 31 32 28 30 39 45 37 39 41 35 36 36 34 36 36 36 29 26 26 28 29 31 34 34 35 33 31 29 27 27 28 26 26 29 28 24 23 21 20 21 21 18 17 16
27 30 25 27 28 30 32 30 30 33 37 42 45 39 36 32 34 40 41 42 41 41 37 31 29 29 31 36 38 37 37 34 33 33 32 30 28 27 30 30 28 25 23 20 18 21 21 18 16
26 26 25 22 27 31 35 35 34 36 37 41 45 51 42 39 33 36 46 46 46 45 40 38 36 32 34 35 42 41 41 39 37 37 35 33 32 29 31 32 31 28 25 22 20 20 20 20 19
15 20 23 26 30 34 35 36 36 38 43 44 47 48 52 43 42 35 39 51 49 48 46 40 41 34 33 35 44 45 42 43 40 40 39 36 34 32 32 32 30 28 24 20 19 19 20 20 19
13 14 17 18 21 22 27 30 33 37 30 31 34 48 57 56 49 44 40 40 47 56 46 46 48 40 35 38 47 49 47 45 44 41 40 38 35 33 33 31 29 25 25 23 20 19 20 19 19
15 19 22 23 17 26 29 37 34 33 30 34 37 32 36 51 57 56 49 41 50 51 61 66 52 46 43 40 50 49 51 48 46 42 41 39 36 35 33 30 29 27 25 24 22 20 20 20 20
19 22 20 20 23 27 34 38 28 22 30 32 30 31 31 40 46 57 61 54 41 50 54 50 37 44 45 44 49 54 52 51 49 44 41 40 38 36 33 30 29 28 25 24 24 23 22 21 21
17 13 31 30 26 26 34 47 37 39 33 33 32 34 33 30 43 47 60 65 53 44 63 54 52 53 51 50 49 54 52 53 51 47 44 42 39 37 34 32 32 31 27 26 25 23 23 23 22
18 27 30 32 36 35 31 51 40 38 31 32 30 29 30 32 38 43 51 65 66 54 44 57 64 56 58 44 50 52 57 53 53 49 46 43 40 38 36 34 34 33 30 30 27 26 24 23 23
26 32 31 41 42 33 40 46 32 26 25 21 21 18 20 25 35 37 41 52 71 66 50 58 55 65 60 51 52 57 58 57 55 52 49 46 42 39 38 34 35 34 32 33 30 29 28 27 24
21 29 38 41 30 44 43 30 30 20 11 9 13 15 18 20 27 32 36 39 60 71 57 48 65 52 62 58 56 66 65 63 59 55 52 48 43 41 38 36 37 36 33 32 31 30 30 30 29
23 32 38 40 45 39 33 23 12 5 3 9 14 17 20 23 28 30 30 34 40 69 68 52 64 64 60 61 45 80 61 61 59 55 53 49 45 41 38 36 36 38 34 34 33 32 33 32 31
25 24 37 43 45 26 24 14 9 11 18 18 17 20 25 30 35 34 30 30 34 54 76 59 52 73 61 60 59 52 60 51 55 57 54 52 47 44 40 39 37 36 36 35 34 32 33 31 29
34 27 42 36 27 12 25 6 14 19 15 24 26 27 30 35 36 40 38 33 32 33 76 69 62 52 64 61 44 46 55 54 57 55 56 54 50 45 42 41 40 37 37 35 34 33 32 29 27
24 34 36 19 18 19 9 8 5 25 23 22 30 42 37 40 44 43 43 40 36 33 51 79 63 52 59 61 48 51 61 60 53 62 54 55 51 48 45 44 42 39 33 35 35 33 31 30 28
26 38 13 7 10 3 0 17 16 16 19 29 34 40 51 60 54 42 42 45 41 36 53 67 70 62 59 70 46 61 49 58 60 60 60 55 56 52 48 46 42 36 36 36 35 32 31 30 29
24 40 9 9 5 5 15 20 16 24 27 29 39 56 50 46 48 46 37 38 46 37 51 61 69 63 54 47 59 46 43 69 65 64 65 58 60 57 52 47 44 47 39 37 39 35 33 33 30
19 28 5 5 7 17 37 8 12 23 22 31 56 44 42 38 38 40 37 31 37 39 46 61 73 65 66 60 72 62 49 45 71 62 67 56 59 57 51 45 46 44 39 39 37 36 35 35 33
14 21 10 11 20 6 9 16 28 19 35 54 44 39 36 34 30 32 30 25 29 39 38 54 72 67 71 48 52 58 36 55 66 67 67 58 58 53 52 47 45 43 40 37 36 37 36 35 35
12 20 11 10 6 8 10 17 17 35 59 56 45 40 37 29 23 25 29 28 22 36 38 61 69 67 63 44 60 59 45 54 64 70 66 66 64 58 55 49 45 42 40 39 39 38 38 37 36
11 15 15 11 10 4 7 9 24 33 62 59 47 43 38 31 25 19 22 22 23 31 40 51 74 66 66 50 51 60 45 45 59 66 64 60 66 56 51 50 45 43 43 41 40 40 39 38 37
15 19 18 11 8 17 15 14 19 55 61 52 43 43 41 30 19 18 15 11 17 30 37 50 72 68 66 62 59 66 44 36 51 61 70 65 59 68 48 48 47 44 44 42 41 41 41 40 38
Wind_Direction
268 267 267 261 250 241 240 238 248 255 259 260 256 255 251 222 237 252 279 272 243 219 219 226 230 224 220 225 225 212 211 216 213 209 200 199 191 171 159 149 142 139 138 144 154 160 158 157 156
272 266 258 254 244 242 252 251 255 268 271 264 257 240 242 240 234 247 270 269 238 221 230 231 222 219 215 221 221 213 210 212 214 208 204 200 187 170 161 154 146 140 142 149 144 153 159 158 156
273 269 260 246 249 244 254 264 270 271 258 253 248 242 248 251 244 255 260 255 241 238 220 214 218 211 213 217 221 213 210 208 210 208 206 200 187 174 166 162 152 151 151 152 142 143 146 152 151
275 270 261 253 252 261 262 270 271 266 249 238 243 247 248 241 230 229 236 261 250 243 230 225 217 219 215 215 218 215 209 208 207 208 207 197 189 175 175 170 160 159 159 161 155 148 144 141 146
269 264 259 257 258 262 265 266 258 247 246 236 239 237 218 208 212 215 225 216 255 250 241 238 218 214 215 214 216 216 211 209 206 208 209 202 191 180 181 177 169 169 169 170 176 160 153 149 148
270 263 255 255 261 262 259 259 254 243 235 233 237 241 233 231 229 225 217 218 220 253 252 249 233 213 214 215 216 214 212 211 206 206 208 201 186 186 182 174 174 178 176 173 176 169 165 162 160
277 269 262 263 264 260 253 243 248 248 240 234 236 247 239 234 225 227 214 214 219 221 252 245 233 226 218 216 215 213 211 209 205 202 198 197 189 189 179 173 177 183 179 180 182 182 180 178 176
279 269 265 263 266 262 256 250 244 243 237 228 232 241 238 233 229 220 217 209 205 210 228 235 224 226 214 214 215 213 209 206 202 199 193 191 189 188 174 179 179 186 189 195 196 193 186 188 189
279 259 261 263 264 254 257 251 243 244 241 230 228 232 227 223 222 222 210 200 200 198 213 222 224 222 219 214 213 212 207 205 200 197 193 191 193 192 180 184 183 185 190 189 197 197 186 188 188
269 258 260 254 263 267 264 262 243 243 243 238 234 238 233 214 207 208 209 201 202 195 197 207 217 221 217 216 213 210 206 202 198 194 193 198 196 196 190 185 189 194 196 185 183 184 185 185 185
274 260 253 260 266 271 277 274 265 263 251 253 243 240 239 226 219 205 200 200 203 200 196 199 210 223 224 221 213 209 206 202 198 199 195 200 201 199 194 193 194 197 195 185 180 176 179 179 179
270 267 269 269 268 271 277 285 284 270 266 258 250 247 247 233 229 213 204 202 198 205 197 204 199 216 220 222 219 209 208 205 199 200 200 203 203 203 198 200 202 198 192 183 185 180 178 178 178
288 278 277 284 292 303 300 294 288 282 279 271 261 246 254 251 235 225 212 206 199 209 198 202 196 209 220 216 215 214 211 209 201 202 203 205 207 208 205 203 208 203 197 187 185 184 183 180 176
295 290 295 295 308 310 302 291 303 297 288 275 270 256 254 257 247 237 224 226 205 208 199 206 188 191 206 213 211 215 210 210 206 204 205 205 208 211 211 208 210 209 201 190 186 186 185 183 178
312 312 305 318 328 318 310 300 305 302 300 289 278 262 260 257 261 247 234 233 224 205 204 209 210 197 202 212 213 215 212 211 209 206 207 208 209 212 214 209 212 211 202 191 189 186 185 185 182
322 322 332 331 339 329 320 299 302 304 297 286 276 269 257 269 262 258 246 236 231 215 203 203 202 200 201 207 214 218 213 215 213 207 207 209 211 213 212 210 213 212 201 193 191 190 189 186 182
335 328 328 330 331 323 312 299 308 308 291 277 279 273 267 263 268 261 252 243 238 225 213 197 204 194 202 200 209 215 216 217 215 209 209 209 211 214 214 209 212 211 202 195 192 192 190 190 183
323 322 320 319 324 322 314 309 324 311 276 277 268 276 282 274 274 266 258 252 239 232 217 199 194 202 202 187 208 214 215 218 216 211 210 209 210 213 214 212 212 211 206 197 194 194 191 186 188
323 315 319 322 329 322 314 317 324 323 245 249 258 274 281 282 285 280 268 262 244 235 221 213 198 197 201 212 192 215 209 213 214 215 211 210 210 211 213 213 211 210 212 201 198 197 192 186 188
326 327 330 328 326 323 324 322 304 311 255 289 289 284 278 274 279 280 277 266 253 237 229 206 201 198 205 201 200 220 202 209 213 217 212 211 211 211 212 215 213 209 210 202 200 198 194 192 194
330 328 325 320 328 332 325 318 248 300 300 299 290 287 289 288 289 281 275 269 265 244 226 210 204 199 201 196 209 195 197 207 211 217 214 211 211 212 210 213 215 216 210 202 200 199 196 197 195
327 332 329 326 323 316 322 286 284 289 294 299 295 298 294 288 277 273 275 272 265 258 231 212 197 203 197 206 211 208 200 196 212 212 213 210 210 211 211 212 213 217 207 201 201 200 197 194 204
322 336 333 321 319 314 316 290 287 297 298 304 304 314 304 298 292 275 265 263 265 260 238 218 204 199 203 199 197 187 207 203 211 214 215 212 210 210 211 210 214 212 203 205 203 201 197 195 199
337 342 349 332 331 327 60 359 289 307 310 312 312 315 311 304 300 290 267 260 257 259 238 228 209 193 201 212 208 194 201 214 212 216 215 216 210 211 211 211 209 207 210 204 202 201 199 201 198
353 7 351 1 352 243 306 324 267 304 303 305 314 309 307 302 298 292 283 254 250 253 231 231 223 196 194 206 205 193 188 207 213 215 215 214 211 211 211 210 206 212 208 203 201 200 199 199 201
1 16 51 301 317 299 304 232 311 306 302 309 312 312 309 304 296 288 285 261 241 242 224 231 224 202 195 201 205 211 212 207 213 210 217 213 219 211 211 209 211 213 209 206 200 200 199 199 201
343 1 338 274 291 282 268 291 303 309 309 323 328 325 322 313 296 289 285 271 235 232 221 228 217 194 192 198 211 206 206 205 213 215 217 211 214 215 213 210 210 211 210 209 201 201 200 201 202
334 357 345 325 314 314 287 306 297 319 330 339 338 336 331 314 297 289 281 271 232 224 217 223 219 209 197 200 206 207 206 194 211 212 212 212 207 216 216 211 211 211 208 206 204 203 201 204 205
323 1 355 317 264 279 303 299 318 325 335 340 340 340 342 331 312 295 278 268 232 226 213 218 215 198 188 198 197 207 206 197 207 214 211 219 206 213 217 213 210 211 210 205 206 204 204 206 207
327 321 340 340 307 290 266 278 322 327 341 343 340 347 352 339 313 286 269 251 226 202 203 211 214 197 184 198 202 207 195 198 218 214 220 213 211 213 214 214 211 212 214 211 206 205 205 208 210
Height
3118 3117 3117 3118 3121 3109 3102 3106 3108 3115 3118 3119 3120 3121 3122 3122 3124 3129 3127 3127 3128 3131 3132 3132 3133 3134 3136 3138 3140 3141 3143 3146 3147 3149 3150 3152 3153 3155 3156 3158 3159 3161 3162 3163 3165 3166 3167 3170 3171
3114 3114 3114 3112 3110 3101 3097 3103 3107 3112 3116 3115 3115 3116 3118 3119 3120 3122 3125 3127 3128 3128 3130 3131 3131 3132 3134 3137 3138 3140 3142 3144 3146 3148 3149 3151 3153 3155 3157 3159 3161 3162 3163 3164 3166 3167 3169 3170 3173
3109 3109 3110 3106 3097 3090 3094 3099 3104 3107 3109 3109 3110 3112 3114 3115 3117 3120 3123 3126 3127 3127 3128 3128 3129 3130 3132 3135 3137 3139 3141 3143 3145 3147 3148 3150 3152 3154 3157 3159 3161 3163 3164 3166 3167 3169 3170 3172 3174
3105 3104 3102 3094 3086 3087 3092 3096 3099 3099 3101 3101 3102 3104 3108 3107 3109 3112 3114 3121 3123 3125 3126 3126 3127 3128 3131 3133 3135 3137 3139 3141 3144 3146 3147 3149 3152 3154 3157 3159 3161 3163 3165 3167 3169 3171 3172 3174 3175
3098 3096 3092 3081 3079 3084 3088 3092 3092 3094 3094 3096 3094 3094 3100 3099 3102 3104 3108 3110 3117 3121 3123 3124 3125 3126 3128 3131 3133 3135 3137 3140 3142 3144 3146 3148 3151 3154 3156 3158 3161 3163 3165 3167 3170 3172 3174 3175 3177
3092 3090 3081 3073 3073 3078 3081 3079 3081 3080 3086 3088 3086 3085 3090 3090 3094 3096 3098 3104 3107 3114 3117 3120 3122 3123 3125 3128 3130 3133 3135 3138 3140 3143 3145 3147 3151 3153 3155 3158 3160 3163 3165 3168 3170 3172 3174 3177 3179
3086 3082 3072 3070 3069 3069 3069 3070 3068 3071 3075 3077 3078 3077 3080 3083 3085 3088 3092 3096 3102 3106 3111 3114 3117 3119 3122 3125 3127 3130 3133 3136 3139 3141 3144 3146 3149 3152 3155 3158 3160 3163 3166 3168 3170 3173 3175 3178 3180
3077 3073 3063 3062 3061 3060 3057 3063 3062 3062 3065 3069 3068 3065 3071 3073 3077 3080 3085 3090 3093 3100 3106 3110 3112 3115 3119 3122 3125 3128 3131 3134 3137 3140 3143 3145 3149 3151 3154 3157 3160 3163 3165 3168 3169 3172 3174 3177 3180
3068 3064 3058 3056 3054 3051 3050 3053 3053 3053 3055 3059 3058 3057 3061 3064 3070 3074 3077 3082 3087 3093 3102 3105 3107 3111 3114 3118 3120 3124 3127 3131 3135 3138 3142 3143 3146 3150 3152 3155 3159 3162 3164 3167 3168 3171 3174 3176 3178
3057 3054 3052 3051 3048 3045 3045 3046 3048 3047 3046 3050 3051 3052 3053 3056 3059 3064 3070 3074 3077 3078 3083 3096 3103 3106 3109 3113 3117 3120 3123 3126 3131 3135 3138 3141 3144 3147 3151 3154 3157 3160 3163 3166 3168 3170 3173 3176 3179
3050 3049 3048 3045 3045 3040 3038 3039 3042 3043 3042 3041 3043 3043 3046 3049 3050 3053 3058 3065 3070 3072 3073 3081 3091 3099 3103 3107 3111 3114 3117 3121 3126 3131 3135 3138 3142 3144 3148 3151 3154 3157 3161 3164 3168 3170 3174 3176 3179
3049 3047 3044 3042 3040 3037 3035 3034 3031 3032 3032 3034 3034 3034 3034 3042 3043 3045 3047 3052 3059 3063 3069 3074 3080 3091 3096 3100 3105 3109 3112 3116 3121 3126 3130 3134 3138 3141 3144 3148 3152 3154 3160 3164 3168 3171 3174 3176 3179
3044 3044 3042 3038 3035 3032 3029 3028 3022 3021 3025 3024 3024 3026 3024 3026 3034 3037 3038 3041 3046 3053 3058 3064 3068 3078 3088 3093 3098 3103 3107 3112 3116 3122 3126 3131 3135 3138 3141 3146 3149 3155 3158 3163 3167 3170 3173 3176 3179
3041 3040 3037 3035 3032 3029 3025 3018 3017 3015 3014 3015 3014 3016 3017 3015 3020 3024 3029 3030 3033 3039 3044 3049 3042 3057 3075 3085 3091 3096 3102 3107 3111 3118 3123 3127 3131 3134 3138 3145 3149 3153 3156 3162 3165 3169 3172 3176 3179
3037 3036 3033 3032 3031 3025 3017 3011 3011 3010 3009 3006 3006 3006 3008 3008 3006 3010 3016 3017 3023 3027 3034 3031 3035 3052 3064 3077 3084 3090 3096 3100 3106 3112 3118 3123 3127 3130 3135 3144 3147 3150 3155 3160 3163 3166 3170 3175 3178
3035 3032 3028 3029 3026 3021 3016 2997 3002 3003 3000 2997 2996 2996 2999 2999 2997 2999 3002 3006 3012 3016 3022 3031 3039 3048 3056 3067 3076 3081 3087 3095 3101 3107 3112 3118 3123 3127 3133 3139 3143 3147 3153 3158 3162 3165 3169 3172 3177
3033 3029 3026 3021 3019 3015 3012 2989 2995 2994 2990 2986 2986 2986 2989 2990 2988 2986 2988 2991 2994 3002 3009 3020 3030 3035 3047 3054 3064 3074 3081 3088 3095 3101 3106 3112 3118 3123 3129 3136 3140 3144 3149 3155 3159 3163 3167 3172 3176
3031 3025 3024 3019 3013 3007 2999 2988 2986 2980 2976 2976 2977 2980 2980 2980 2977 2978 2980 2980 2984 2989 2999 3007 3014 3029 3035 3025 3053 3063 3072 3080 3087 3093 3100 3106 3112 3117 3124 3131 3136 3141 3146 3152 3156 3161 3164 3170 3175
3032 3027 3020 3014 3008 2998 2991 2983 2978 2972 2968 2972 2973 2973 2973 2974 2973 2971 2971 2970 2972 2976 2984 2996 3006 3012 3020 3018 3035 3047 3055 3065 3075 3085 3093 3101 3107 3111 3120 3127 3133 3138 3143 3150 3155 3159 3163 3167 3171
3031 3023 3014 3002 3002 2995 2984 2981 2977 2973 2971 2970 2969 2968 2967 2967 2967 2965 2964 2963 2963 2964 2972 2982 2994 3005 3012 3018 3030 3032 3041 3058 3067 3079 3088 3096 3102 3106 3115 3122 3128 3134 3139 3146 3151 3156 3159 3165 3169
3027 3022 3012 3009 2989 2989 2982 2974 2974 2973 2970 2968 2967 2966 2964 2960 2958 2956 2955 2956 2953 2952 2956 2967 2981 2995 3005 3013 3024 3003 3034 3050 3060 3070 3081 3089 3096 3101 3109 3117 3125 3131 3137 3144 3149 3154 3158 3164 3169
3020 3018 3010 3000 2994 2987 2985 2979 2973 2969 2968 2966 2963 2961 2958 2953 2950 2947 2945 2947 2947 2947 2945 2954 2970 2976 2994 3000 3007 3018 3023 3034 3049 3061 3073 3081 3090 3096 3104 3112 3120 3127 3134 3140 3147 3152 3158 3163 3169
3021 3014 3003 2997 2993 2989 2985 2981 2966 2966 2964 2961 2957 2951 2947 2942 2936 2934 2932 2934 2937 2938 2940 2947 2958 2974 2982 2994 3000 3007 3022 3032 3045 3057 3066 3076 3085 3091 3099 3107 3115 3122 3130 3137 3144 3150 3156 3161 3166
3021 3011 2999 2994 2993 2991 2985 2986 2965 2963 2959 2954 2951 2946 2938 2930 2923 2920 2918 2919 2921 2926 2929 2935 2945 2956 2965 2979 2983 2993 3004 3023 3035 3045 3057 3069 3078 3083 3091 3101 3109 3117 3124 3132 3141 3147 3154 3159 3163
3022 3009 3002 3003 2999 2995 2986 2983 2963 2961 2957 2952 2943 2936 2928 2918 2910 2904 2902 2903 2907 2911 2916 2925 2933 2947 2960 2978 2985 2995 3002 3014 3025 3038 3049 3060 3070 3075 3085 3097 3105 3114 3121 3128 3134 3142 3149 3155 3161
3026 3024 3026 3027 3006 2987 2981 2974 2964 2960 2957 2951 2943 2927 2916 2908 2900 2892 2889 2889 2896 2900 2905 2910 2923 2936 2951 2961 2975 2987 2993 3008 3021 3032 3042 3056 3065 3076 3086 3095 3103 3110 3117 3124 3131 3138 3145 3151 3157
3029 3027 3026 3018 3002 2997 2977 2967 2961 2958 2954 2945 2928 2916 2907 2897 2889 2882 2880 2880 2884 2890 2899 2904 2915 2929 2945 2959 2973 2984 2993 3003 3012 3027 3038 3050 3065 3076 3084 3092 3099 3106 3114 3122 3129 3135 3141 3147 3153
3031 3029 3024 3021 3011 2998 2975 2966 2960 2951 2938 2928 2916 2906 2896 2886 2879 2874 2871 2870 2874 2880 2888 2896 2910 2927 2941 2955 2966 2981 2989 2998 3007 3021 3032 3043 3061 3070 3079 3087 3095 3103 3110 3117 3123 3130 3136 3142 3149
3030 3027 3025 3022 3014 3005 2984 2965 2960 2953 2940 2922 2910 2901 2889 2878 2870 2865 2863 2862 2864 2869 2879 2889 2903 2919 2936 2952 2965 2978 2989 2996 3005 3014 3028 3040 3050 3064 3074 3085 3092 3098 3105 3111 3118 3125 3132 3138 3144
3027 3024 3023 3019 3008 3003 2993 2967 2958 2952 2936 2923 2909 2896 2882 2873 2864 2859 2857 2856 2858 2863 2872 2885 2901 2918 2938 2953 2965 2976 2987 2994 3001 3009 3023 3033 3038 3054 3069 3079 3087 3094 3100 3107 3114 3120 3126 3133 3139